EUTELSAT 65 WEST A (41382 NORAD) Tracking and Keplerian Element Data

This shows tracking and keplerian element data for the satellite.

Feedback or suggestion? Click here.




ElementValue
Catalog41382
NameEUTELSAT 65 WEST A
Epoch Orbit3574
Epoch Day354.18167919
Epoch Year2025
RAAN331.4387
Inclination0.0535
Eccentricity0.000212
Argument of Perigee301.0776
Mean Anonmoly176.7007
Mean Motion1.00274182
Decay Rate-2.52E-06
L11 41382U 16014A 25354.18167919 -.00000252 00000+0 00000+0 0 9999
L22 41382 0.0535 331.4387 0002120 301.0776 176.7007 1.00274182 35743



Live tracking and technical data element details for EUTELSAT 65 WEST A (NORAD 41382). EUTELSAT 65 WEST A can be tracked NOW for your location showing map with azimuth and elevation plus other details from your city location.







IsCatalogInMostPopularTable: catalog: 41382, numindb: 607
Update: records affected: 1



GetName: 41382 EUTELSAT 65 WEST A

Hit Count: updated at: Mon, 18 May 2026 09:55:27 GMT